sat.trackr.live / text

‹ back to catalog

GPS BIII-4 (PRN 14)

NORAD 46826 · 2020-078A

PAYLOAD ACTIVE UNKNOWN

§ Identity

Operator
Country
US
Launch date
2020-11-05
Launch site
AFETR
Launch vehicle
Mass (kg)
RCS (m²)

Purposes: earth_obs, nav

External: N2YO · Heavens-Above · Gunter

§ Orbital elements

Epoch: 2026-09-19T12:00:05.499360Z

Period
717.97 min
Inclination
53.9670°
Eccentricity
0.0076206
Mean motion
2.00565190 rev/d
Perigee alt
19,979.7 km
Apogee alt
20,384.5 km
Semi-major
26,560.2 km
B*
0.0000e+0
RAAN
206.9567°
Arg perigee
208.3875°
Mean anomaly
153.4518°
Rev number
4,340

§ Raw data

GPS BIII-4  (PRN 14)1 46826U 20078A   26262.50006365 -.00000001  00000+0  00000+0 0  99962 46826  53.9670 206.9567 0076206 208.3875 153.4518  2.00565190 43403

JSON: /api/v1/satellites/46826 · /tle

For live sub-satellite position, see the globe view (requires WebGL).

§ Visibility from observer

Set your observer location to see the next 7 days of passes ≥ 10°. The values pass through the URL so the page stays shareable.

No JS? Fill the form by hand. The geolocation button needs JavaScript.